Date,Time,Wetness (Wet Dry or Ice),Wind Speed (m/s),Temperature (C),Humidity (%),Pressure (mb),Radiation (W/m^2)
2020-11-05,03:40:00,DRY,4.13,3.80,37.3,767.00,1.1
2020-11-05,03:45:00,DRY,2.40,3.90,36.5,767.00,1.6
2020-11-05,03:50:00,DRY,2.97,3.83,38.0,767.00,1.4
2020-11-05,03:55:00,DRY,2.50,3.55,36.0,767.00,0.8
2020-11-05,04:00:00,DRY,2.37,3.60,38.0,767.00,1.2
2020-11-05,04:05:00,DRY,1.15,3.55,41.0,767.00,2.0
2020-11-05,04:10:00,DRY,3.20,3.33,43.7,767.00,1.2
2020-11-05,04:15:00,DRY,1.70,3.45,44.5,767.00,1.1
2020-11-05,04:20:00,DRY,2.87,3.30,40.0,767.00,0.8
2020-11-05,04:25:00,DRY,4.40,3.55,42.5,767.00,1.2
2020-11-05,04:30:00,DRY,4.30,3.43,42.0,767.00,1.4
2020-11-05,04:35:00,DRY,4.15,3.20,45.0,767.00,1.8
2020-11-05,04:40:00,DRY,2.60,3.17,43.3,767.00,1.5
2020-11-05,04:45:00,DRY,2.50,3.30,41.0,767.00,0.7
2020-11-05,04:50:00,DRY,3.20,2.90,45.0,766.67,1.2
2020-11-05,04:55:00,DRY,4.85,2.75,43.5,766.00,1.2
2020-11-05,05:00:00,DRY,4.40,2.70,46.3,766.00,2.1
2020-11-05,05:05:00,DRY,4.90,1.25,81.0,766.00,1.9
2020-11-05,05:10:00,DRY,5.63,0.90,98.7,766.00,13.8
2020-11-05,05:15:00,DRY,4.75,1.60,100.0,766.00,31.6
2020-11-05,05:20:00,DRY,3.97,2.10,100.0,766.00,70.9
2020-11-05,05:25:00,DRY,5.15,2.10,100.0,766.00,66.7
2020-11-05,05:30:00,DRY,4.43,2.27,100.0,766.00,60.2
2020-11-05,05:35:00,DRY,4.20,2.30,100.0,766.00,57.5
2020-11-05,05:40:00,DRY,4.53,2.43,100.0,766.00,53.5
2020-11-05,05:45:00,DRY,3.10,2.20,100.0,766.00,47.9
2020-11-05,05:50:00,DRY,4.07,1.80,100.0,766.00,47.2
2020-11-05,05:55:00,DRY,3.35,1.80,100.0,766.00,47.0
2020-11-05,06:00:00,DRY,3.80,1.80,100.0,766.00,42.6
2020-11-05,06:05:00,DRY,3.00,1.50,100.0,766.00,40.3
2020-11-05,06:10:00,DRY,2.00,1.37,100.0,766.00,35.7
2020-11-05,06:15:00,DRY,2.40,1.20,100.0,766.00,36.2
2020-11-05,06:20:00,DRY,3.97,0.87,100.0,766.00,35.6
2020-11-05,06:25:00,DRY,4.05,0.85,100.0,766.00,35.7
2020-11-05,06:30:00,DRY,2.93,0.60,98.3,766.00,34.5
2020-11-05,06:35:00,DRY,2.90,0.85,98.5,766.00,32.3
2020-11-05,06:40:00,DRY,4.03,0.53,99.0,766.00,31.4
2020-11-05,06:45:00,DRY,3.60,2.15,56.5,766.00,22.3
2020-11-05,06:50:00,DRY,4.10,2.77,45.7,766.00,15.5
2020-11-05,06:55:00,DRY,4.95,1.95,82.0,766.00,9.3
2020-11-05,07:00:00,DRY,3.73,2.13,74.3,766.00,7.4
2020-11-05,07:05:00,DRY,3.50,0.95,97.0,766.00,11.7
2020-11-05,07:10:00,DRY,3.97,1.57,73.7,766.00,9.2
2020-11-05,07:15:00,DRY,2.50,2.85,44.0,766.00,5.2
2020-11-05,07:20:00,DRY,4.30,2.63,46.0,766.00,6.5
2020-11-05,07:25:00,DRY,3.10,2.60,41.5,766.00,9.1
2020-11-05,07:30:00,DRY,1.73,2.30,45.0,766.00,11.6
2020-11-05,07:35:00,DRY,2.00,1.90,47.5,766.00,14.6
2020-11-05,07:40:00,DRY,2.83,2.07,55.0,766.00,16.1
2020-11-05,07:45:00,DRY,1.35,1.30,68.0,766.00,19.2
2020-11-05,07:50:00,DRY,2.30,0.73,81.3,766.00,23.3
2020-11-05,07:55:00,DRY,3.20,0.45,93.5,766.00,26.0
2020-11-05,08:00:00,DRY,1.90,0.70,97.7,766.00,59.0
2020-11-05,08:05:00,DRY,3.05,1.25,100.0,766.00,91.8
2020-11-05,08:10:00,DRY,1.40,1.37,100.0,766.00,122.5
2020-11-05,08:15:00,DRY,3.25,1.40,100.0,766.00,80.8
2020-11-05,08:20:00,DRY,3.87,1.67,100.0,766.00,202.8
2020-11-05,08:25:00,DRY,3.15,2.60,100.0,766.00,192.2
2020-11-05,08:30:00,DRY,2.93,2.80,100.0,766.00,192.0
2020-11-05,08:35:00,DRY,2.20,2.60,100.0,766.00,155.7
2020-11-05,08:40:00,DRY,2.77,2.60,100.0,766.00,179.5
2020-11-05,08:45:00,DRY,1.35,2.60,100.0,766.00,256.2
2020-11-05,08:50:00,DRY,2.70,2.03,100.0,766.00,287.2
2020-11-05,08:55:00,DRY,2.75,1.55,96.5,766.00,334.4
2020-11-05,09:00:00,DRY,2.87,2.27,83.3,766.00,350.7
2020-11-05,09:05:00,DRY,3.40,3.20,66.0,766.00,357.6
2020-11-05,09:10:00,DRY,3.07,2.93,87.3,766.00,374.6
2020-11-05,09:15:00,DRY,4.70,3.10,82.0,766.00,398.9
2020-11-05,09:20:00,DRY,3.00,3.70,64.0,766.00,415.3
2020-11-05,09:25:00,DRY,2.00,3.85,59.0,766.00,436.9
2020-11-05,09:30:00,DRY,2.03,3.57,68.0,766.00,462.1
2020-11-05,09:35:00,DRY,4.30,3.45,62.5,766.00,480.8
2020-11-05,09:40:00,DRY,3.83,3.33,69.0,766.00,504.6
2020-11-05,09:45:00,DRY,4.05,3.25,71.5,765.50,564.4
2020-11-05,09:50:00,DRY,1.87,3.10,82.7,766.00,597.9
2020-11-05,09:55:00,DRY,2.60,2.80,87.5,766.00,540.2
2020-11-05,10:00:00,DRY,3.97,2.37,95.7,766.00,515.6
2020-11-05,10:05:00,DRY,3.00,2.35,97.5,766.00,414.2
2020-11-05,10:10:00,DRY,1.47,2.83,99.3,766.00,422.0
2020-11-05,10:15:00,DRY,3.35,2.90,99.5,766.00,226.3
2020-11-05,10:20:00,DRY,2.00,2.50,99.7,766.00,427.3
2020-11-05,10:25:00,DRY,1.80,2.50,99.0,766.00,513.5
2020-11-05,10:30:00,DRY,3.97,2.87,98.0,766.00,685.4
2020-11-05,10:35:00,DRY,2.65,3.00,97.5,766.00,391.6
2020-11-05,10:40:00,DRY,3.73,2.93,96.3,766.00,520.3
2020-11-05,10:45:00,DRY,2.15,3.15,93.0,766.00,228.4
2020-11-05,10:50:00,DRY,3.20,2.77,92.3,766.00,501.0
2020-11-05,10:55:00,DRY,2.95,2.55,97.5,766.00,448.8
2020-11-05,11:00:00,DRY,2.80,2.90,94.3,766.00,709.4
2020-11-05,11:05:00,DRY,2.90,2.85,92.0,766.00,162.1
2020-11-05,11:10:00,DRY,4.37,2.83,99.0,765.67,178.9
2020-11-05,11:15:00,DRY,4.65,2.60,98.0,765.50,757.4
2020-11-05,11:20:00,DRY,3.13,3.37,73.3,766.00,815.8
2020-11-05,11:25:00,DRY,3.00,3.45,85.5,766.00,213.7
2020-11-05,11:30:00,DRY,3.20,2.97,92.7,766.00,710.2
2020-11-05,11:35:00,DRY,3.35,3.30,85.5,765.50,496.6
2020-11-05,11:40:00,DRY,3.67,3.77,87.0,765.00,723.2
2020-11-05,11:45:00,DRY,3.15,3.20,89.5,765.50,571.5
2020-11-05,11:50:00,DRY,4.40,3.70,92.7,765.00,483.8
2020-11-05,11:55:00,DRY,2.25,3.30,96.5,765.00,367.1
2020-11-05,12:00:00,DRY,2.20,3.50,98.7,765.00,384.2
2020-11-05,12:05:00,DRY,3.40,3.40,99.0,765.00,277.7
2020-11-05,12:10:00,DRY,3.90,3.43,99.7,765.00,321.1
2020-11-05,12:15:00,DRY,3.25,3.20,99.5,765.00,179.8
2020-11-05,12:20:00,DRY,3.13,3.33,99.7,765.00,460.2
2020-11-05,12:25:00,DRY,3.45,3.50,100.0,765.00,370.9
2020-11-05,12:30:00,DRY,5.70,3.27,94.7,764.67,1011.8
2020-11-05,12:35:00,DRY,5.70,3.15,94.0,765.00,356.0
2020-11-05,12:40:00,DRY,4.63,3.50,87.7,764.67,560.8
2020-11-05,12:45:00,DRY,4.60,3.35,98.5,764.50,338.8
2020-11-05,12:50:00,DRY,3.83,3.17,97.7,764.67,319.6
2020-11-05,12:55:00,DRY,5.35,3.30,99.0,764.50,498.6
2020-11-05,13:00:00,DRY,4.97,3.10,96.7,764.67,425.6
2020-11-05,13:05:00,DRY,6.65,3.15,80.5,764.50,865.6
2020-11-05,13:10:00,DRY,3.10,3.53,94.7,764.00,514.3
2020-11-05,13:15:00,DRY,5.20,3.15,97.0,764.00,437.8
2020-11-05,13:20:00,DRY,4.90,3.33,99.3,764.00,303.8
2020-11-05,13:25:00,DRY,5.10,3.35,99.0,764.00,305.4
2020-11-05,13:30:00,DRY,6.80,3.60,100.0,764.00,705.4
2020-11-05,13:35:00,DRY,3.50,3.40,100.0,764.00,417.8
2020-11-05,13:40:00,DRY,6.23,3.20,97.7,764.00,866.7
2020-11-05,13:45:00,DRY,6.55,3.20,87.0,764.00,866.2
2020-11-05,13:50:00,DRY,5.47,3.30,95.0,764.00,683.1
2020-11-05,13:55:00,DRY,5.70,3.20,98.5,764.00,884.8
2020-11-05,14:00:00,DRY,6.47,3.03,92.0,764.00,734.2
2020-11-05,14:05:00,DRY,6.95,3.15,97.0,764.00,283.4
2020-11-05,14:10:00,DRY,5.40,3.23,95.7,764.00,673.6
2020-11-05,14:15:00,DRY,3.65,3.35,90.0,764.00,349.6
2020-11-05,14:20:00,DRY,5.77,3.27,96.7,764.00,642.2
2020-11-05,14:25:00,DRY,5.70,2.95,88.0,764.00,765.5
2020-11-05,14:30:00,DRY,6.53,3.00,96.3,764.00,652.5
2020-11-05,14:35:00,DRY,4.40,2.85,96.5,764.00,663.4
2020-11-05,14:40:00,DRY,5.13,3.17,98.0,764.00,430.2
2020-11-05,14:45:00,DRY,4.35,3.00,98.0,764.00,597.5
2020-11-05,14:50:00,DRY,5.27,2.97,99.3,764.00,394.3
2020-11-05,14:55:00,DRY,3.85,2.85,99.0,764.00,436.6
2020-11-05,15:00:00,DRY,6.00,2.57,97.0,764.00,569.7
2020-11-05,15:05:00,DRY,6.40,2.70,95.0,764.00,662.0
2020-11-05,15:10:00,DRY,4.70,2.73,99.0,764.00,221.9
2020-11-05,15:15:00,DRY,6.20,2.45,99.0,764.00,513.9
2020-11-05,15:20:00,DRY,6.53,2.13,99.0,764.00,257.1
2020-11-05,15:25:00,DRY,5.40,2.25,100.0,764.00,266.1
2020-11-05,15:30:00,DRY,4.90,2.23,100.0,763.33,360.9
2020-11-05,15:35:00,DRY,3.80,2.55,100.0,764.00,325.4
2020-11-05,15:40:00,DRY,5.97,2.07,99.3,763.33,487.9
2020-11-05,15:45:00,DRY,3.65,2.20,99.5,763.00,296.1
2020-11-05,15:50:00,DRY,7.50,2.30,100.0,763.00,316.1
2020-11-05,15:55:00,DRY,7.20,2.30,99.5,763.00,622.0
2020-11-05,16:00:00,DRY,5.17,2.27,100.0,763.00,280.3
2020-11-05,16:05:00,DRY,7.80,2.55,100.0,763.00,185.2
2020-11-05,16:10:00,DRY,6.73,2.77,100.0,763.00,265.2
2020-11-05,16:15:00,DRY,7.20,2.65,100.0,763.00,409.2
2020-11-05,16:20:00,DRY,6.43,2.00,98.7,763.00,384.7
2020-11-05,16:25:00,DRY,4.35,2.50,100.0,763.50,224.5
2020-11-05,16:30:00,DRY,4.37,2.47,100.0,763.33,228.0
2020-11-05,16:35:00,DRY,6.90,2.25,100.0,764.00,243.4
2020-11-05,16:40:00,DRY,6.30,2.23,99.3,763.33,329.3
2020-11-05,16:45:00,DRY,8.00,2.45,99.0,763.00,391.6
2020-11-05,16:50:00,DRY,6.03,2.43,99.0,763.33,146.9
2020-11-05,16:55:00,DRY,5.85,2.45,99.5,764.00,175.2
2020-11-05,17:00:00,DRY,6.20,2.80,100.0,763.67,131.4
2020-11-05,17:05:00,WET,8.75,3.00,100.0,764.00,160.9
2020-11-05,17:10:00,WET,5.40,2.93,100.0,763.67,195.9
2020-11-05,17:15:00,DRY,6.70,2.80,100.0,763.50,153.9
2020-11-05,17:20:00,DRY,6.13,2.83,100.0,764.00,144.7
2020-11-05,17:25:00,DRY,5.90,3.05,100.0,764.00,112.6
2020-11-05,17:30:00,WET,5.60,3.00,100.0,764.00,127.3
2020-11-05,17:35:00,WET,5.00,2.85,100.0,764.00,129.5
2020-11-05,17:40:00,DRY,6.30,2.97,100.0,764.00,115.3
2020-11-05,17:45:00,WET,6.25,2.80,100.0,764.00,96.3
2020-11-05,17:50:00,WET,6.73,2.93,100.0,764.00,80.1
2020-11-05,17:55:00,WET,4.50,3.00,100.0,764.00,84.5
2020-11-05,18:00:00,WET,7.63,2.63,100.0,764.00,72.9
2020-11-05,18:05:00,DRY,6.05,2.80,100.0,763.50,68.5
2020-11-05,18:10:00,DRY,6.75,2.15,100.0,764.00,68.2
2020-11-05,18:15:00,WET,6.85,2.15,100.0,764.00,59.0
2020-11-05,18:20:00,WET,6.77,2.00,100.0,764.00,54.9
2020-11-05,18:25:00,WET,9.55,2.20,100.0,763.50,59.4
2020-11-05,18:30:00,DRY,8.60,2.27,100.0,763.67,56.5
2020-11-05,18:35:00,WET,7.80,2.05,100.0,764.00,46.6
2020-11-05,18:40:00,WET,8.50,1.90,100.0,763.33,39.8
2020-11-05,18:45:00,DRY,8.70,1.70,100.0,763.00,35.0
2020-11-05,18:50:00,DRY,9.10,1.83,100.0,764.00,38.6
2020-11-05,18:55:00,WET,7.00,1.95,100.0,764.00,38.0
2020-11-05,19:00:00,WET,8.17,1.80,100.0,764.00,38.3
2020-11-05,19:05:00,DRY,6.75,1.80,100.0,764.00,36.9
2020-11-05,19:10:00,DRY,8.40,1.63,100.0,763.67,34.7
2020-11-05,19:15:00,DRY,7.50,1.40,100.0,764.00,31.8
2020-11-05,19:20:00,DRY,8.37,1.43,100.0,764.00,29.6
2020-11-05,19:25:00,DRY,6.15,1.45,100.0,764.00,38.6
2020-11-05,19:30:00,DRY,8.70,0.90,100.0,764.00,31.6
2020-11-05,19:35:00,DRY,6.80,0.85,99.5,764.00,25.6
2020-11-05,19:40:00,DRY,6.60,0.80,98.7,764.00,22.3
2020-11-05,19:45:00,DRY,6.45,0.95,99.5,764.00,20.0
2020-11-05,19:50:00,DRY,8.77,1.27,100.0,764.00,25.3
2020-11-05,19:55:00,DRY,7.45,1.35,100.0,764.00,27.6
2020-11-05,20:00:00,DRY,9.13,1.50,100.0,764.00,29.5
2020-11-05,20:05:00,WET,9.65,1.55,100.0,764.00,31.7
2020-11-05,20:10:00,WET,7.77,1.73,100.0,764.00,32.9
2020-11-05,20:15:00,WET,7.05,1.70,100.0,764.00,37.0
2020-11-05,20:20:00,WET,8.07,1.67,100.0,764.00,41.3
2020-11-05,20:25:00,WET,8.40,1.45,100.0,764.00,40.8
2020-11-05,20:30:00,WET,9.13,1.93,100.0,764.00,44.1
2020-11-05,20:35:00,WET,8.75,1.95,100.0,764.00,50.9
2020-11-05,20:40:00,WET,7.93,1.77,100.0,764.00,41.5
2020-11-05,20:45:00,WET,8.50,1.65,100.0,764.00,37.2
2020-11-05,20:50:00,WET,8.93,2.00,100.0,764.00,41.1
2020-11-05,20:55:00,WET,8.20,1.90,100.0,764.00,39.0
2020-11-05,21:00:00,WET,8.57,1.97,100.0,764.00,32.6
2020-11-05,21:05:00,WET,8.95,2.15,100.0,764.00,34.4
2020-11-05,21:10:00,WET,8.33,2.37,100.0,764.00,36.4
2020-11-05,21:15:00,WET,8.20,2.50,100.0,764.00,33.0
2020-11-05,21:20:00,WET,8.17,2.43,100.0,764.00,31.5
2020-11-05,21:25:00,WET,8.90,2.10,100.0,764.00,34.5
2020-11-05,21:30:00,WET,8.50,1.87,100.0,764.00,32.5
2020-11-05,21:35:00,WET,7.05,1.60,100.0,764.00,25.1
2020-11-05,21:40:00,WET,9.47,1.73,100.0,764.00,28.5
2020-11-05,21:45:00,WET,11.75,1.75,100.0,764.00,26.8
2020-11-05,21:50:00,WET,9.33,2.10,100.0,764.00,31.1
2020-11-05,21:55:00,WET,7.95,1.95,100.0,764.00,32.0
2020-11-05,22:00:00,WET,8.57,1.60,100.0,764.00,28.5
2020-11-05,22:05:00,WET,6.05,2.00,100.0,764.50,26.4
2020-11-05,22:10:00,WET,6.13,2.13,100.0,764.67,26.1
2020-11-05,22:15:00,WET,8.20,2.60,100.0,764.00,29.5
2020-11-05,22:20:00,WET,9.40,2.93,100.0,764.33,35.4
2020-11-05,22:25:00,WET,9.05,3.05,100.0,764.00,35.4
2020-11-05,22:30:00,WET,6.87,3.13,100.0,764.33,32.2
2020-11-05,22:35:00,WET,7.15,3.05,100.0,764.00,36.2
2020-11-05,22:40:00,WET,6.73,3.03,100.0,764.33,31.4
2020-11-05,22:45:00,WET,8.50,3.20,100.0,764.00,28.3
2020-11-05,22:50:00,WET,8.30,3.17,100.0,764.67,28.0
2020-11-05,22:55:00,WET,6.30,3.30,100.0,765.00,30.1
2020-11-05,23:00:00,WET,7.60,3.30,100.0,764.00,31.8
2020-11-05,23:05:00,WET,6.15,3.35,100.0,764.50,32.0
2020-11-05,23:10:00,WET,10.43,3.20,100.0,764.00,28.3
2020-11-05,23:15:00,WET,8.85,3.10,100.0,764.00,30.6
2020-11-05,23:20:00,WET,8.83,3.13,100.0,764.00,28.3
2020-11-05,23:25:00,WET,6.45,3.20,100.0,764.00,26.9
2020-11-05,23:30:00,WET,6.93,3.27,100.0,764.00,29.5
2020-11-05,23:35:00,WET,6.45,3.35,100.0,764.00,30.9
2020-11-05,23:40:00,WET,5.60,3.40,100.0,764.00,30.5
2020-11-05,23:45:00,WET,8.40,3.45,100.0,764.00,29.7
2020-11-05,23:50:00,WET,8.90,3.37,100.0,764.00,27.4
2020-11-05,23:55:00,WET,7.45,3.25,100.0,764.00,22.3
2020-11-06,00:00:00,WET,6.33,3.33,100.0,764.00,24.5
2020-11-06,00:05:00,WET,8.75,3.15,100.0,764.00,22.1
2020-11-06,00:10:00,WET,6.93,3.10,100.0,764.00,23.0
2020-11-06,00:15:00,WET,6.65,3.20,100.0,764.00,20.9
2020-11-06,00:20:00,WET,7.20,3.10,100.0,764.00,22.3
2020-11-06,00:25:00,WET,3.75,3.30,100.0,764.00,24.8
2020-11-06,00:30:00,WET,6.57,3.23,100.0,764.00,27.4
2020-11-06,00:35:00,WET,3.65,3.35,100.0,764.50,26.7
2020-11-06,00:40:00,WET,7.30,3.23,100.0,764.00,27.3
2020-11-06,00:45:00,WET,8.25,3.35,100.0,764.00,23.0
2020-11-06,00:50:00,WET,10.63,3.33,100.0,764.00,22.7
2020-11-06,00:55:00,WET,7.70,3.40,100.0,764.00,24.0
2020-11-06,01:00:00,WET,6.00,3.83,100.0,764.00,23.1
2020-11-06,01:05:00,WET,4.95,3.85,100.0,764.00,27.0
2020-11-06,01:10:00,WET,4.67,3.93,100.0,764.00,22.4
2020-11-06,01:15:00,WET,5.30,4.10,100.0,764.00,24.4
2020-11-06,01:20:00,WET,5.43,4.10,100.0,764.33,23.6
2020-11-06,01:25:00,WET,5.25,4.05,100.0,764.00,23.2
2020-11-06,01:30:00,WET,6.87,4.30,100.0,764.00,23.1
2020-11-06,01:35:00,WET,8.25,4.20,100.0,764.00,21.8
2020-11-06,01:40:00,WET,8.50,3.77,100.0,764.00,22.9
2020-11-06,01:45:00,WET,10.45,3.75,100.0,764.00,22.1
2020-11-06,01:50:00,WET,9.03,3.87,100.0,764.00,24.1
2020-11-06,01:55:00,WET,10.30,3.85,100.0,764.00,21.9
2020-11-06,02:00:00,WET,11.80,3.87,100.0,763.67,27.0
2020-11-06,02:05:00,WET,10.05,4.05,100.0,764.00,23.1
2020-11-06,02:10:00,WET,8.37,4.17,100.0,764.00,26.3
2020-11-06,02:15:00,WET,9.55,4.00,100.0,764.00,23.4
2020-11-06,02:20:00,WET,8.53,4.03,100.0,764.00,27.7
2020-11-06,02:25:00,WET,6.75,4.10,100.0,764.00,30.8
2020-11-06,02:30:00,WET,9.23,4.23,100.0,764.00,27.3
2020-11-06,02:35:00,WET,5.85,4.05,100.0,764.50,31.2
2020-11-06,02:40:00,WET,7.40,3.93,100.0,764.33,23.6
2020-11-06,02:45:00,WET,7.75,3.95,100.0,764.50,22.8
2020-11-06,02:50:00,WET,6.03,3.80,100.0,764.33,20.2
2020-11-06,02:55:00,WET,5.00,3.75,100.0,764.50,21.2
2020-11-06,03:00:00,WET,6.77,3.30,100.0,764.00,20.1
2020-11-06,03:05:00,WET,7.45,3.25,100.0,764.00,23.1
2020-11-06,03:10:00,WET,8.33,3.50,100.0,764.00,23.1
2020-11-06,03:15:00,WET,6.45,3.85,100.0,764.00,25.1
2020-11-06,03:20:00,WET,7.03,3.70,100.0,764.00,23.1
2020-11-06,03:25:00,WET,7.40,3.80,100.0,764.00,22.6
2020-11-06,03:30:00,WET,6.50,3.93,100.0,764.00,22.2
2020-11-06,03:35:00,WET,9.55,3.60,100.0,764.00,20.1
2020-11-06,03:40:00,WET,8.40,3.57,100.0,764.00,20.4
2020-11-06,03:45:00,WET,7.70,3.35,100.0,764.00,19.6
2020-11-06,03:50:00,WET,8.93,3.80,100.0,764.00,19.7
2020-11-06,03:55:00,WET,9.35,3.55,100.0,764.00,20.6
2020-11-06,04:00:00,WET,7.77,3.67,100.0,764.00,17.4
2020-11-06,04:05:00,WET,8.30,3.55,100.0,764.00,17.4
2020-11-06,04:10:00,WET,8.73,3.73,100.0,764.00,18.1
2020-11-06,04:15:00,WET,8.60,3.80,100.0,764.00,19.0
2020-11-06,04:20:00,WET,7.60,3.80,100.0,764.00,18.5
2020-11-06,04:25:00,WET,7.95,3.90,100.0,764.00,21.4
2020-11-06,04:30:00,WET,8.07,3.80,100.0,764.00,22.1
2020-11-06,04:35:00,WET,7.10,3.85,100.0,764.00,21.7
2020-11-06,04:40:00,WET,9.53,3.90,100.0,764.00,21.1
2020-11-06,04:45:00,WET,6.85,3.85,100.0,764.00,20.3
2020-11-06,04:50:00,WET,7.03,3.87,100.0,764.00,19.2
2020-11-06,04:55:00,WET,7.10,3.90,100.0,764.00,22.1
2020-11-06,05:00:00,WET,6.13,4.10,100.0,764.00,20.5
2020-11-06,05:05:00,WET,6.75,4.10,100.0,764.00,20.1
2020-11-06,05:10:00,WET,4.30,4.30,100.0,764.00,23.6
2020-11-06,05:15:00,WET,8.70,4.20,100.0,764.00,19.3
2020-11-06,05:20:00,WET,5.90,4.23,100.0,764.33,20.4
2020-11-06,05:25:00,WET,5.00,4.30,100.0,765.00,17.4
2020-11-06,05:30:00,WET,5.87,4.47,100.0,765.00,20.8
2020-11-06,05:35:00,WET,5.30,4.40,100.0,764.50,20.8
2020-11-06,05:40:00,WET,7.20,4.33,100.0,764.00,18.9
2020-11-06,05:45:00,WET,8.05,4.30,100.0,764.50,19.1
2020-11-06,05:50:00,WET,7.17,4.10,100.0,764.00,19.1
2020-11-06,05:55:00,WET,7.85,3.95,100.0,764.50,20.4
2020-11-06,06:00:00,WET,8.70,4.00,100.0,764.67,19.0
2020-11-06,06:05:00,WET,7.25,3.80,100.0,764.00,20.1
2020-11-06,06:10:00,WET,6.37,4.03,100.0,764.67,17.2
2020-11-06,06:15:00,WET,8.45,4.10,100.0,765.00,21.8
2020-11-06,06:20:00,WET,11.30,4.17,100.0,764.33,23.3
2020-11-06,06:25:00,WET,6.85,4.35,100.0,765.00,19.6
2020-11-06,06:30:00,WET,8.63,4.53,100.0,764.67,20.6
2020-11-06,06:35:00,WET,7.70,4.30,100.0,765.00,19.9
2020-11-06,06:40:00,WET,6.53,4.13,100.0,765.00,19.6
2020-11-06,06:45:00,WET,8.55,3.65,100.0,764.50,20.0
2020-11-06,06:50:00,WET,10.63,3.83,100.0,765.00,19.3
2020-11-06,06:55:00,WET,6.95,3.75,100.0,765.00,20.6
2020-11-06,07:00:00,WET,7.67,3.60,100.0,765.00,20.6
2020-11-06,07:05:00,WET,5.50,3.40,100.0,765.00,21.9
2020-11-06,07:10:00,WET,6.37,3.30,100.0,765.00,19.5
2020-11-06,07:15:00,WET,7.55,3.30,100.0,765.00,18.5
2020-11-06,07:20:00,WET,7.03,3.47,100.0,765.00,20.3
2020-11-06,07:25:00,WET,8.25,3.35,100.0,765.00,22.4
2020-11-06,07:30:00,WET,6.50,3.47,100.0,765.33,24.6
2020-11-06,07:35:00,WET,6.20,3.70,100.0,765.00,23.9
2020-11-06,07:40:00,WET,6.43,3.63,100.0,765.67,26.8
2020-11-06,07:45:00,WET,7.25,3.30,100.0,765.00,27.4
2020-11-06,07:50:00,DRY,8.63,3.20,100.0,765.33,36.1
2020-11-06,07:55:00,DRY,8.10,3.10,100.0,765.50,30.1
2020-11-06,08:00:00,WET,8.83,3.30,100.0,765.67,46.1
2020-11-06,08:05:00,WET,7.85,3.30,100.0,766.00,39.5
2020-11-06,08:10:00,DRY,8.37,3.10,100.0,766.00,49.5
2020-11-06,08:15:00,DRY,7.35,3.05,100.0,766.00,51.0
2020-11-06,08:20:00,WET,9.50,3.13,100.0,766.00,53.3
2020-11-06,08:25:00,DRY,7.60,3.35,100.0,766.00,57.4
2020-11-06,08:30:00,WET,8.80,3.40,100.0,766.00,76.6
2020-11-06,08:35:00,WET,9.80,3.55,100.0,766.00,81.8
2020-11-06,08:40:00,WET,8.17,3.40,100.0,766.00,80.5
2020-11-06,08:45:00,WET,6.45,3.40,100.0,766.00,95.2
2020-11-06,08:50:00,WET,5.30,3.47,100.0,766.00,96.3
2020-11-06,08:55:00,WET,6.70,3.35,100.0,766.00,99.0
2020-11-06,09:00:00,WET,9.73,3.03,100.0,766.00,137.8
2020-11-06,09:05:00,WET,8.55,3.20,100.0,766.50,115.9
2020-11-06,09:10:00,DRY,6.47,3.17,100.0,767.00,171.1
2020-11-06,09:15:00,DRY,7.15,3.15,100.0,767.00,133.9
2020-11-06,09:20:00,DRY,7.47,2.97,100.0,767.00,146.1
2020-11-06,09:25:00,DRY,6.00,2.90,100.0,767.00,175.7
2020-11-06,09:30:00,DRY,7.40,2.90,100.0,767.00,112.1
2020-11-06,09:35:00,WET,9.05,2.95,100.0,767.00,159.9
2020-11-06,09:40:00,DRY,7.47,3.07,100.0,767.00,212.3
2020-11-06,09:45:00,DRY,7.70,2.70,100.0,767.00,249.3
2020-11-06,09:50:00,DRY,6.03,2.67,100.0,767.00,252.5
2020-11-06,09:55:00,DRY,8.45,2.70,100.0,767.50,233.6
2020-11-06,10:00:00,DRY,7.30,2.30,99.7,767.33,490.9
2020-11-06,10:05:00,DRY,5.95,2.35,97.0,767.50,556.2
2020-11-06,10:10:00,DRY,9.57,2.27,93.0,767.67,609.5
2020-11-06,10:15:00,DRY,9.80,2.35,92.0,768.00,598.8
2020-11-06,10:20:00,DRY,6.43,2.47,86.3,768.00,626.7
2020-11-06,10:25:00,DRY,9.05,2.65,86.5,767.50,642.0
2020-11-06,10:30:00,DRY,9.13,2.50,94.3,768.00,592.3
2020-11-06,10:35:00,DRY,8.00,2.60,97.0,768.00,660.3
2020-11-06,10:40:00,DRY,6.93,2.73,90.7,768.00,682.3
2020-11-06,10:45:00,DRY,8.20,2.80,84.5,768.00,741.5
2020-11-06,10:50:00,DRY,7.87,2.73,92.3,768.00,547.5
2020-11-06,10:55:00,DRY,4.85,2.90,97.5,768.00,744.4
2020-11-06,11:00:00,DRY,7.07,2.97,84.7,768.00,775.0
2020-11-06,11:05:00,DRY,7.25,2.95,87.0,768.00,785.0
2020-11-06,11:10:00,DRY,7.10,2.93,92.0,768.00,663.3
2020-11-06,11:15:00,DRY,10.65,3.00,89.5,768.00,849.8
2020-11-06,11:20:00,DRY,10.83,3.20,87.0,768.00,866.6
2020-11-06,11:25:00,DRY,7.65,3.45,91.5,768.00,782.1
2020-11-06,11:30:00,DRY,8.13,2.93,95.7,768.00,618.3
2020-11-06,11:35:00,DRY,9.05,3.25,86.5,768.00,862.0
2020-11-06,11:40:00,DRY,7.93,3.47,82.3,768.00,862.2
2020-11-06,11:45:00,DRY,9.60,3.60,77.5,768.00,869.6
2020-11-06,11:50:00,DRY,8.07,3.60,82.3,768.00,879.0
2020-11-06,11:55:00,DRY,9.90,3.65,85.0,768.00,883.8
2020-11-06,12:00:00,DRY,7.77,4.00,77.3,768.00,907.3
2020-11-06,12:05:00,DRY,10.35,4.00,82.0,768.00,909.8
2020-11-06,12:10:00,DRY,8.10,4.10,73.7,768.00,891.3
2020-11-06,12:15:00,DRY,9.30,4.10,78.0,768.00,892.8
2020-11-06,12:20:00,DRY,8.90,4.10,76.3,768.00,903.1
2020-11-06,12:25:00,DRY,9.35,4.30,75.0,768.00,903.0
2020-11-06,12:30:00,DRY,8.47,4.13,78.3,768.00,935.4
2020-11-06,12:35:00,DRY,7.35,4.35,77.0,768.50,918.4
2020-11-06,12:40:00,DRY,8.67,4.23,80.0,768.00,747.6
2020-11-06,12:45:00,DRY,9.90,4.30,77.0,768.00,930.3
2020-11-06,12:50:00,DRY,10.43,4.17,77.0,768.00,925.3
2020-11-06,12:55:00,DRY,9.20,4.10,81.5,768.00,903.2
2020-11-06,13:00:00,DRY,9.40,4.27,80.0,768.00,918.9
2020-11-06,13:05:00,DRY,10.05,4.25,83.5,768.00,869.8
2020-11-06,13:10:00,DRY,7.93,4.30,88.0,768.00,886.6
2020-11-06,13:15:00,DRY,9.85,4.30,86.0,768.00,948.0
2020-11-06,13:20:00,DRY,7.23,4.27,87.7,768.00,936.7
2020-11-06,13:25:00,DRY,8.10,4.20,89.5,768.00,985.0
2020-11-06,13:30:00,DRY,7.60,4.30,87.0,768.00,1010.4
2020-11-06,13:35:00,DRY,11.40,4.00,92.0,768.00,635.7
2020-11-06,13:40:00,DRY,5.47,3.83,96.0,768.00,626.6
2020-11-06,13:45:00,DRY,7.55,3.80,92.5,768.00,694.5
2020-11-06,13:50:00,DRY,8.67,4.17,90.0,768.00,998.5
2020-11-06,13:55:00,DRY,7.80,4.00,94.5,768.00,523.8
2020-11-06,14:00:00,DRY,6.37,4.23,90.0,768.00,672.7
2020-11-06,14:05:00,DRY,6.60,4.35,88.0,768.00,898.1
2020-11-06,14:10:00,DRY,10.13,4.27,86.0,768.00,842.8
2020-11-06,14:15:00,DRY,8.60,4.20,89.0,768.00,767.9
2020-11-06,14:20:00,DRY,7.53,4.47,86.3,768.00,829.0
2020-11-06,14:25:00,DRY,9.65,4.40,81.5,768.00,829.8
2020-11-06,14:30:00,DRY,7.07,4.30,85.3,768.00,844.9
2020-11-06,14:35:00,DRY,7.85,4.40,87.0,768.00,879.2
2020-11-06,14:40:00,DRY,8.07,4.17,87.7,768.00,790.2
2020-11-06,14:45:00,DRY,9.25,4.10,89.0,768.00,796.0
2020-11-06,14:50:00,DRY,6.80,4.17,86.7,768.00,816.8
2020-11-06,14:55:00,DRY,7.75,4.45,85.5,768.00,758.8
2020-11-06,15:00:00,DRY,6.93,4.37,85.3,768.33,762.4
2020-11-06,15:05:00,DRY,7.40,4.55,78.0,768.50,814.8
2020-11-06,15:10:00,DRY,6.57,4.50,80.7,769.00,723.4
2020-11-06,15:15:00,DRY,5.30,4.70,81.5,769.00,707.9
2020-11-06,15:20:00,DRY,6.10,4.70,88.7,769.00,689.4
2020-11-06,15:25:00,DRY,4.80,4.95,78.0,769.00,668.4
2020-11-06,15:30:00,DRY,5.93,5.03,73.0,769.00,657.0
2020-11-06,15:35:00,DRY,4.50,5.35,67.0,769.00,641.2
2020-11-06,15:40:00,DRY,4.63,5.37,75.0,769.00,628.3
2020-11-06,15:45:00,DRY,4.60,5.25,67.0,769.00,607.5
2020-11-06,15:50:00,DRY,3.80,5.80,51.3,769.00,591.6
2020-11-06,15:55:00,DRY,5.30,5.75,47.0,769.00,579.0
2020-11-06,16:00:00,DRY,3.60,4.97,51.0,769.00,556.9
2020-11-06,16:05:00,DRY,3.15,5.35,55.5,769.00,534.6
2020-11-06,16:10:00,DRY,3.67,5.93,51.0,769.00,516.9
2020-11-06,16:15:00,DRY,3.80,6.40,44.5,769.00,497.6
2020-11-06,16:20:00,DRY,3.37,5.93,57.3,769.00,479.0
2020-11-06,16:25:00,DRY,4.90,6.65,39.0,769.00,460.0
2020-11-06,16:30:00,DRY,3.90,7.33,19.7,769.00,440.4
2020-11-06,16:35:00,DRY,3.95,7.45,15.0,769.00,421.4
2020-11-06,16:40:00,DRY,3.30,7.50,13.7,769.00,400.7
2020-11-06,16:45:00,DRY,3.00,7.70,13.0,769.00,380.1
2020-11-06,16:50:00,DRY,3.60,7.73,15.3,769.00,360.0
2020-11-06,16:55:00,DRY,3.65,7.60,15.0,769.00,338.8
2020-11-06,17:00:00,DRY,5.30,7.67,13.3,769.00,317.5
2020-11-06,17:05:00,DRY,3.80,7.60,15.5,769.00,296.6
2020-11-06,17:10:00,DRY,3.93,7.53,14.3,769.00,275.2
2020-11-06,17:15:00,DRY,3.50,7.35,16.5,769.00,254.6
2020-11-06,17:20:00,DRY,3.47,7.53,14.7,769.33,233.7
2020-11-06,17:25:00,DRY,4.45,7.50,13.5,770.00,212.9
2020-11-06,17:30:00,DRY,3.93,7.47,14.3,770.00,192.5
2020-11-06,17:35:00,DRY,2.80,7.15,20.0,770.00,173.2
2020-11-06,17:40:00,DRY,3.40,7.27,13.7,770.00,152.7
2020-11-06,17:45:00,DRY,3.35,7.55,12.0,770.00,126.0
2020-11-06,17:50:00,DRY,2.97,7.67,9.7,770.00,99.5